loading
|

ONEWEB-0086, 45456

Orbit data source: Space-Track

ONEWEB-0086, 45456 is a payload satellite owned by One Web (UK) in LEO that was launched on Sat, 21 Mar 2020 UTC via a SOYUZ-2-1B launch vehicle from the Tyuratam Missile And Space Complex (TTMTR). Payloads include a variety of satellites, spacecraft, and rockets equipped with specific instruments for various scientific and technological missions. These include communications satellites like Starlink; space stations such as the ISS; scientific satellites like the Hubble; Earth observation satellites from companies like Planet Labs, Umbra, and HawkEye 360; GPS; miniature CubeSats for education and research; and military/defense satellites.

Loading next visibility...
Loading greatness...
ONEWEB-0086 details
Identifier
45456, 2020-020AJ
Orbit
LEO
Last TLE update10 hours ago
Origin
Flag of UKOne Web (UK)
ManufacturerOne Web
MissionOperational Commercial Communications
Bus & MotorARROW, Unknown motor
Mass148 kg wet, ~140 kg dry
Launch date (UTC)
2020-03-21 (5 years ago)
Launch vehicle
SOYUZ-2-1B
Launch site
Tyuratam Missile And Space Complex (TTMTR)
Object type
Payload
Rocket body
Debris
Shape & HBRTrap Box + 2 Pan, 5 m
Radar Cross Section2.957 m², Large (>1 m²)

Expand to show TLE details & history

TLE from 10 hours ago
0 ONEWEB-0086
1 45456U 20020AJ  24279.54571469  .00000627  00000-0  17335-2 0  9999
2 45456  87.8935 144.4814 0001436  93.7521 266.3772 13.11417232221398
Epoch: 2024-10-05T13:05Z
Definitive object data (Epoch: 2024-10-05T13:05:49.749Z)
Latitude0.00008°
Longitude-66.67637°
Altitude1,220.64 km
Speed7.244 km/s
True Right ascension09h 37m 55s
True Declination0° 00' 00"
Sunlit
Object was in daylight at TLE epoch
Predictive object data (real-time)
Latitude79.45803°
Longitude101.90247°
Altitude1,230.002 km
Speed7.247 km/s
Apparent Right ascension03h 40m 59s
Apparent Declination37° 31' 30"
Sunlit
Object is in daylight
Predictive observer data (real-time)
Local Sidereal Time16:45:40
Azimuth13.01° NNE
Elevation-11.15°
Doppler factor1
Orbital elements
Apogee1,215.89 km
Perigee1,213.709 km
Semi-major axis7,592.937 km
Eccentricity0.0001436
Inclination87.8935°
RAAN144.4814°
Arg. of periapsis93.7521°
True anomaly266.36078°
Mean anomaly266.3772°
Eccentric anomaly266.36899°
Mean motion3.28041 °/min
BSTAR0.0017335
Period109.74 mins
No data available

ONEWEB-0086 Visibility forecast

Observer location: 39.9160978°, -105.1181434

ONEWEB-0086 is not visible in the next 10 days
Span
Click to sort rows by Start time (UTC) header in descending order
Start Az.
Max El. time (UTC)
Max El. Az.
Max El.
End time (UTC)
End Az.